Location: Lombard
(41.8800°N, 88.0080°W)
Time: 00:25:36
(UTC-05:00)

Transit 2A - Pass Details

Date: 11 February 2023
Orbit: 591 x 964 km, 66.7° (Epoch: 20 March)

Event Time Altitude Azimuth Distance (km) Brightness Sun altitude
Rises 14:09:57 0° 186° (S) 2,960 10.0 27.4°
Reaches altitude 10° 14:12:15 10° 178° (S) 2,101 9.2 27.1°
Maximum altitude 14:16:39 38° 111° (ESE) 1,097 7.0 26.6°
Drops below altitude 10° 14:21:31 10° 44° (NE) 2,335 8.0 26.1°
Sets 14:24:12 0° 37° (NE) 3,335 8.7 25.8°
